Notices

What's New in latest Release from April 7th, 2021:

- Updated Glossary, including Speed of Maximum Gust, and Total Hourly Precipitation

- Updated national and regional climate services offices contacts and prices information

- Addition of station inventory lists for 1981-2010, 1971-2000, and 1961-1990 Normals.

If you haven't already, please take our survey and provide feedback about our website: https://eccc.sondage-survey.ca/f/LanguageSelection.aspx?s=442ca660-fcf1-47c0-95a9-59707d6fd709

Hourly Data Report for March 16, 2017

MIRAMICHI RCS
NEW BRUNSWICK

47°00'34.000" N
65°27'54.000" W
33.00 m
8100989
71744
ACQ

Download Data

Hourly Data (March 2017)
Hourly Data Report for March 16, 2017
TIME
LST
Temp Definition
°C
Dew Point Definition
°C
Rel Hum Definition
%
Precip. Amount Definition
mm

Wind Dir Definition
10's deg

Wind Spd Definition
km/h
Visibility Definition
km
Stn Press Definition
kPa
Hmdx Definition


Wind Chill Definition


Weather Definition


00:00 -1.2 -2.3 92 0.2 24 8   98.61   -4 LegendNANA
01:00 -1.9 -3.8 87 0.4 25 12   98.59   -6 LegendNANA
02:00 -2.8 -5.5 82 0.0 21 13   98.58   -7 LegendNANA
03:00 -4.3 -6.9 82 0.0 22 13   98.57   -9 LegendNANA
04:00 -3.7 -5.9 85 0.0 21 15   98.59   -9 LegendNANA
05:00 -3.9 -6.2 84 0.0 22 17   98.64   -10 LegendNANA
06:00 -4.4 -6.5 85 0.0 22 17   98.70   -10 LegendNANA
07:00 -4.7 -6.6 86 0.0 23 20   98.76   -11 LegendNANA
08:00 -4.6 -6.8 84 0.0 23 18   98.82   -11 LegendNANA
09:00 -3.6 -6.2 82 0.0 23 21   98.88   -10 LegendNANA
10:00 -3.0 -5.0 86 0.0 24 20   98.96   -9 LegendNANA
11:00 -1.9 -6.6 70 0.0 24 25   99.04   -8 LegendNANA
12:00 -0.2 -7.9 56 0.0 27 23   99.11   -6 LegendNANA
13:00 0.4 -8.2 53 0.0 26 21   99.19     LegendNANA
14:00 0.2 -7.7 55 0.0 24 25   99.31     LegendNANA
15:00 0.1 -7.8 55 0.0 26 22   99.46     LegendNANA
16:00 -0.6 -7.3 60 0.0 28 19   99.63   -6 LegendNANA
17:00 -2.4 -4.8 83 0.0 24 19   99.76   -8 LegendNANA
18:00 -2.4 -5.2 81 0.0 26 15   99.87   -7 LegendNANA
19:00 -3.0 -5.6 82 0.0 30 11   99.98   -7 LegendNANA
20:00 -3.5 -6.4 80 0.0 29 13   100.09   -8 LegendNANA
21:00 -4.4 -9.4 68 0.0 30 14   100.20   -10 LegendNANA
22:00 -5.6 -10.2 70 0.0 26 10   100.28   -10 LegendNANA
23:00 -6.7 -10.9 72 0.0 26 8   100.33   -11 LegendNANA

Notes on Data Quality.

Legend

  • E = Estimated
  • M = Missing
  • NA = Not Available*
  • [empty] = Indicates an unobserved value
Date modified: